Theta_e
317 317 317 317 317 318 318 319 319 318 318 319 319 320 320 321 321 322 323 323 323 324 324 324 325 325 326 326 327 326 323 324 323 320 316 318 328 335 339 341 340 339 337 320 317 314 308 311 309 310 311 314 316 313 314 319 314 312 304 300 295 295 294 299 298 299 301 299 299 301 303 302 299 303 304 306 303 303 303 302 303 304 303 304 305 307 308 309
316 316 316 316 317 317 317 317 318 319 318 318 319 320 320 320 321 322 322 323 323 323 324 325 325 326 326 326 326 326 323 323 321 316 315 329 337 340 341 338 339 337 331 318 310 309 308 308 309 309 309 308 316 310 317 314 317 310 301 298 295 297 298 301 301 302 301 300 302 302 302 302 301 303 302 300 300 301 301 301 302 301 302 303 304 305 306 306
316 316 315 315 316 316 316 317 317 318 318 318 319 319 319 319 320 321 322 322 323 323 324 325 325 326 326 326 326 325 324 329 323 314 323 333 338 341 339 335 332 334 322 313 311 310 308 308 307 306 306 306 308 308 313 310 311 309 302 298 297 302 300 302 303 302 303 303 301 301 301 300 302 303 305 301 299 301 300 299 300 301 301 301 302 304 305 305
315 316 316 315 315 316 316 316 317 317 318 318 319 319 319 320 320 321 322 322 322 323 324 324 325 325 325 325 325 323 325 328 313 315 327 335 338 339 335 333 332 326 322 317 312 311 310 309 308 307 309 303 307 309 307 310 307 307 302 298 300 299 298 300 303 303 302 303 302 301 301 300 302 303 303 301 298 300 299 300 301 300 301 301 302 303 304 304
315 315 315 315 315 315 317 317 316 317 317 318 318 319 319 320 320 321 322 322 322 323 324 324 324 325 324 325 323 324 324 308 310 322 321 334 338 335 333 331 330 321 316 314 312 312 311 309 307 308 309 301 305 305 302 308 308 306 299 302 301 300 300 301 303 303 301 301 301 301 299 301 303 303 301 301 297 296 299 300 301 300 300 300 301 302 304 303
315 315 315 315 315 315 316 316 316 316 317 318 318 318 319 320 321 321 321 322 322 323 323 324 324 324 324 324 320 324 323 294 310 321 330 331 332 331 330 329 328 318 314 312 311 311 308 308 307 305 302 301 301 301 302 305 310 299 301 301 302 301 301 303 303 302 301 302 301 300 302 302 301 300 302 302 300 298 300 301 300 300 301 301 302 302 302 302
315 315 315 315 315 315 315 316 316 316 317 318 318 319 319 321 321 321 321 321 322 323 323 323 324 324 323 322 324 316 312 313 321 324 328 330 331 326 328 330 326 318 314 311 311 310 315 305 306 305 303 302 302 301 302 304 307 303 298 301 301 303 302 304 302 301 300 301 301 303 302 300 300 297 302 300 299 300 300 301 300 301 301 302 301 301 301 302
316 316 315 315 315 315 315 315 316 316 316 318 318 318 320 321 321 321 321 322 322 322 323 323 323 324 322 323 326 318 314 309 319 325 323 327 325 320 324 324 317 322 313 310 309 308 307 304 303 305 301 300 302 302 303 303 303 300 300 302 301 302 303 302 301 301 301 301 302 302 299 299 300 300 300 299 299 299 300 300 300 300 301 301 300 300 301 301
316 316 316 315 315 315 314 314 315 315 316 317 318 319 319 320 321 321 321 321 322 322 323 323 323 323 322 318 316 306 305 322 325 326 330 326 319 315 321 318 315 312 311 311 311 310 311 307 305 304 299 301 303 302 302 300 301 302 301 302 302 302 303 301 301 301 301 302 302 300 299 300 301 300 299 299 300 300 300 299 300 300 299 299 299 299 300 299
316 316 316 315 315 315 315 315 315 315 315 317 318 319 319 320 320 321 321 322 322 322 322 323 323 321 317 322 319 299 320 319 327 324 325 320 317 316 317 319 315 312 311 311 312 310 310 306 308 308 308 304 307 302 302 302 298 302 301 301 301 302 302 302 301 302 302 301 300 298 298 300 300 299 294 299 300 300 299 299 299 299 298 298 299 299 299 299
316 315 316 315 315 315 316 316 316 315 316 316 318 319 320 320 320 321 321 321 322 322 322 323 322 320 321 317 307 300 323 328 326 319 319 320 314 314 319 319 314 314 311 313 310 310 310 309 311 308 310 302 304 301 302 301 303 303 301 300 300 301 302 302 302 302 300 300 300 300 298 300 299 298 296 298 299 300 299 298 298 299 297 297 299 299 301 299
316 316 316 316 316 316 316 316 316 316 316 316 317 318 319 319 320 321 321 321 321 322 322 322 321 316 315 311 305 307 316 325 325 317 320 320 319 320 320 315 314 321 313 310 316 318 317 314 311 306 300 306 299 302 301 303 303 302 301 297 300 301 300 302 301 301 301 299 300 301 297 295 295 294 298 299 299 299 299 298 298 298 298 297 298 298 298 298
317 317 317 316 316 316 317 317 317 317 316 316 316 317 318 320 320 320 321 321 322 321 322 322 320 322 320 306 308 315 318 322 321 318 318 318 316 315 318 320 320 315 315 313 314 318 318 314 313 304 309 305 303 298 302 303 302 302 300 297 297 298 298 302 303 300 298 299 299 299 288 292 295 297 298 299 299 299 298 297 297 297 297 296 297 297 297 299
318 317 317 317 316 316 317 318 318 316 316 316 317 317 319 320 320 321 321 320 321 322 322 322 321 316 315 305 311 320 322 320 321 316 318 321 316 319 320 321 320 317 320 318 316 315 317 309 313 307 311 303 301 306 302 302 303 296 300 299 293 292 292 300 301 298 297 298 298 299 290 292 296 296 298 298 299 298 296 297 297 297 297 296 297 297 298 298
318 318 317 316 316 316 317 318 319 318 316 316 317 318 319 319 321 321 321 320 321 323 321 320 320 321 306 305 316 319 327 322 315 316 321 316 315 316 315 317 317 317 312 313 316 315 312 317 314 305 301 305 306 301 298 298 298 297 294 291 294 291 295 298 301 299 296 296 299 297 291 293 295 295 297 298 298 298 297 297 297 297 296 297 297 296 297 297
318 317 317 317 316 316 317 318 317 317 316 316 316 318 320 320 320 320 320 320 322 322 320 318 322 314 305 304 316 328 322 311 313 318 316 320 320 317 315 314 316 314 312 309 315 310 310 314 306 306 302 304 300 296 295 295 296 296 293 291 293 293 295 296 298 300 301 297 298 297 291 295 293 297 297 298 298 298 297 298 297 297 297 296 295 296 296 297
318 318 317 317 316 316 317 318 317 316 316 316 316 318 319 321 321 321 321 321 320 321 318 316 314 312 300 312 316 312 310 317 319 320 318 318 318 315 313 313 310 310 314 311 315 314 310 306 307 304 307 299 299 300 292 290 291 293 295 292 296 293 294 292 296 299 300 297 293 296 293 294 296 296 297 297 298 297 296 297 297 297 295 295 295 295 296 297
318 318 317 317 317 317 317 318 317 316 316 316 316 318 318 321 322 319 319 320 321 320 318 320 313 312 304 306 303 307 315 313 320 317 317 314 318 314 313 308 309 308 308 306 313 305 308 304 303 297 299 298 297 295 289 287 292 291 293 291 293 296 296 294 293 296 298 297 295 294 294 295 295 296 296 297 298 297 296 297 297 296 295 295 295 295 296 296
318 318 317 317 317 317 318 318 317 316 316 317 319 321 322 321 319 319 318 318 314 309 304 304 305 294 294 305 309 312 317 316 317 317 311 314 319 315 315 312 312 305 303 301 301 303 305 303 304 297 293 294 295 296 294 296 298 295 296 295 294 292 293 294 296 297 298 294 294 294 294 296 297 295 296 296 298 297 297 297 296 296 295 295 295 295 295 295
319 318 318 317 317 317 317 318 317 317 317 316 317 318 318 314 312 310 313 315 308 305 306 308 308 308 306 308 309 311 314 319 309 315 314 319 312 312 308 308 310 308 302 298 301 301 305 295 292 291 295 297 299 299 299 300 299 297 298 296 294 294 295 298 296 298 298 296 294 295 296 296 298 297 296 296 297 296 296 296 295 295 295 295 294 295 295 295
319 319 318 318 317 317 317 318 318 317 317 316 316 315 307 304 301 297 307 309 312 311 308 309 308 307 306 310 310 309 304 305 311 311 313 318 313 307 303 305 302 298 299 302 301 302 303 294 295 298 299 300 300 301 300 299 299 297 296 294 292 296 293 297 297 296 298 295 293 295 295 296 298 299 297 296 295 294 296 295 295 295 295 295 294 294 294 294
319 319 318 318 317 317 318 318 318 318 318 316 315 311 312 312 313 309 308 302 311 311 311 310 311 309 310 311 311 314 313 304 307 310 316 314 308 302 302 302 300 296 301 301 300 296 294 292 297 300 302 302 301 300 299 298 297 297 294 293 292 293 297 299 296 297 297 295 292 294 294 295 298 299 297 295 295 296 297 297 296 296 294 294 295 294 294 293
318 319 318 318 317 318 318 319 318 318 315 313 311 312 312 317 319 319 315 307 304 312 310 309 307 307 307 310 310 312 305 303 301 308 308 312 305 304 303 299 298 299 300 300 295 294 291 295 299 302 302 300 298 299 298 299 298 294 293 290 289 295 294 290 293 296 295 294 292 293 293 295 298 299 299 296 296 296 298 298 298 297 295 294 295 295 294 293
318 318 318 318 318 318 318 319 319 315 312 313 312 313 320 321 321 318 312 302 300 306 310 311 310 308 307 304 310 308 304 304 305 305 312 308 303 305 304 300 299 299 297 299 298 296 295 300 303 302 301 299 297 297 296 294 292 295 295 293 292 294 295 294 293 294 295 295 295 293 291 292 295 295 297 294 295 293 293 294 294 294 296 296 296 295 295 294
318 318 318 318 318 318 318 319 313 311 314 313 311 316 318 320 321 319 309 301 301 302 317 314 317 314 311 315 311 305 305 306 306 310 309 308 305 303 301 304 300 296 298 300 299 297 297 301 303 300 299 298 298 295 295 295 290 292 296 295 296 297 295 296 297 295 291 290 294 292 284 285 294 295 296 291 290 291 292 291 291 292 294 293 293 293 294 295
318 318 318 317 318 318 320 310 310 313 312 309 312 317 319 319 321 319 309 298 290 302 306 301 313 305 315 305 308 308 305 300 309 310 309 310 314 306 303 300 301 295 298 299 298 297 298 301 301 299 298 297 297 295 297 297 292 291 293 299 298 296 296 296 294 293 285 283 292 295 284 284 292 293 292 290 290 291 291 291 292 292 293 292 292 293 293 293
319 318 318 318 318 319 311 305 315 314 307 309 315 319 321 322 323 316 298 291 286 301 299 311 306 305 316 307 307 307 293 297 309 309 308 312 306 313 300 298 300 301 301 303 297 293 298 296 297 299 298 296 294 293 298 297 292 289 296 299 298 297 296 295 295 293 290 294 295 293 291 284 286 292 291 291 290 290 290 290 291 292 292 292 292 293 292 292
319 318 317 318 319 318 312 314 312 309 309 314 317 319 321 321 318 314 299 282 282 306 300 298 308 312 313 307 308 302 300 304 300 302 303 309 308 304 301 298 297 297 299 299 288 299 298 295 297 296 295 293 294 297 299 299 294 294 296 299 296 297 297 296 294 290 289 287 284 287 292 284 283 290 294 292 289 290 290 289 290 291 292 292 292 293 292 292
318 318 317 318 319 319 318 316 313 309 316 317 319 321 321 320 313 302 293 280 303 301 314 300 314 310 306 307 304 303 300 302 298 299 306 306 305 303 297 299 300 299 300 299 293 298 299 297 299 300 296 293 297 295 299 300 294 296 298 297 297 297 295 296 289 289 287 286 283 286 290 284 285 290 289 291 289 290 291 291 291 292 291 291 292 292 292 292
318 318 318 317 318 316 315 317 316 320 317 318 318 318 318 311 304 291 287 278 305 294 303 302 303 299 303 299 300 301 299 299 299 300 303 300 304 307 301 305 301 298 297 299 298 298 298 296 298 299 297 299 294 294 295 298 297 298 298 296 293 293 290 289 289 287 285 282 285 290 291 288 282 288 289 288 289 293 294 291 292 292 291 292 292 292 292 292
318 318 317 317 313 314 315 310 315 316 316 316 316 314 311 306 295 286 281 289 300 301 301 299 298 303 298 297 295 298 300 297 297 299 296 301 297 300 300 297 304 296 292 292 291 296 296 297 297 298 299 297 297 293 295 296 297 297 293 289 291 287 287 286 285 286 280 281 284 290 291 291 281 283 293 294 294 295 295 291 291 291 291 291 292 292 292 291
318 318 317 316 316 318 310 309 316 315 314 315 313 308 302 290 294 285 283 298 288 295 296 294 300 299 298 301 298 296 295 297 297 297 295 294 293 293 295 292 294 287 287 288 288 293 291 292 297 297 299 298 295 293 292 294 294 295 291 289 284 282 281 279 282 279 280 280 281 284 290 286 286 290 293 293 293 295 295 294 292 291 291 292 292 291 291 291
317 317 317 316 316 315 316 319 317 314 313 313 309 306 296 288 281 291 290 292 289 301 298 301 297 298 298 298 297 297 299 293 297 297 298 297 294 294 298 297 298 294 287 290 289 287 290 295 296 296 296 298 298 291 286 285 288 291 289 286 283 281 279 276 278 281 281 282 282 284 287 283 286 290 297 298 294 293 294 295 294 293 292 292 292 291 291 290
317 317 314 315 316 317 318 319 317 314 312 311 306 300 296 284 283 296 292 293 296 302 301 299 299 299 299 294 297 297 292 298 295 296 297 294 294 291 294 297 299 296 295 289 287 288 283 284 291 293 288 298 297 297 295 291 289 291 294 291 287 285 281 278 280 279 280 280 281 284 282 280 281 286 288 290 290 291 291 293 294 293 293 292 292 291 290 289
317 316 316 316 315 318 319 318 316 314 311 308 301 294 286 284 288 287 290 293 296 302 298 302 297 297 295 297 299 298 298 292 297 296 295 294 290 292 292 293 297 299 297 289 291 288 289 290 296 298 296 297 295 299 300 294 290 290 293 294 288 286 287 285 283 281 279 280 278 278 281 283 287 290 290 290 289 290 291 292 293 292 292 291 290 290 289 289
315 314 316 312 312 316 320 318 316 314 310 303 295 289 286 289 286 292 291 300 299 297 297 299 298 294 293 294 297 296 301 295 296 295 293 295 296 293 297 297 296 299 296 291 292 286 289 287 294 295 296 295 296 298 298 298 284 288 291 286 290 294 292 286 281 282 280 279 279 282 281 284 290 289 288 289 288 288 289 291 291 291 291 291 290 289 289 289
311 313 308 312 313 317 319 318 316 313 308 301 293 287 292 293 297 300 300 298 299 300 297 291 293 293 292 292 291 294 296 298 294 293 288 295 292 297 296 298 301 299 300 298 292 297 288 290 291 292 291 294 292 295 299 297 298 291 284 289 294 295 292 286 282 281 279 278 280 282 280 280 282 283 287 286 286 286 288 288 291 291 290 289 290 289 290 290
311 310 310 310 314 319 319 318 315 310 305 298 290 292 297 293 300 300 303 301 302 300 296 293 294 297 293 293 292 294 296 293 292 292 290 294 289 300 297 297 301 300 301 302 294 294 298 288 289 293 293 292 295 296 295 297 295 291 289 296 290 282 282 285 283 279 276 277 278 279 282 283 285 286 284 285 286 287 288 288 289 290 289 290 290 290 290 289
312 309 303 310 318 319 318 317 312 307 300 293 290 289 296 297 302 301 303 302 303 300 295 296 293 297 296 294 295 295 294 290 293 291 289 292 288 298 298 300 298 302 302 302 296 295 296 288 286 289 291 292 292 292 285 287 293 294 294 290 294 287 283 283 286 282 282 279 277 280 281 282 287 289 288 290 290 289 288 288 289 290 291 291 290 290 290 289
308 304 302 314 318 319 318 314 307 303 297 289 290 290 298 296 301 304 304 304 300 298 297 296 298 294 296 296 298 292 295 295 293 292 293 294 293 300 298 302 299 300 301 302 298 300 291 293 285 285 291 291 283 288 288 290 287 285 285 284 288 286 288 286 286 285 281 278 278 279 279 282 288 292 292 292 292 291 289 289 290 291 291 291 291 291 290 290
311 304 305 316 317 319 316 308 300 295 294 296 295 293 296 296 301 302 304 306 305 307 300 299 298 295 296 295 296 298 294 294 294 292 293 294 295 289 299 300 301 298 300 299 297 296 290 288 287 283 283 284 287 293 293 294 293 291 289 287 290 287 284 282 282 287 285 283 279 279 280 282 291 291 293 294 294 293 292 291 291 291 291 292 292 291 291 290
305 296 302 316 318 316 307 297 297 300 296 293 291 295 295 302 301 301 302 304 304 302 308 303 303 301 298 297 298 296 295 293 294 293 294 292 297 296 299 303 302 302 298 292 294 299 296 290 289 284 284 287 291 292 294 293 293 293 292 289 292 290 287 284 281 283 285 285 283 281 278 284 290 290 290 290 292 293 293 292 291 292 292 292 293 292 291 291
303 300 311 316 317 313 303 296 298 296 294 296 299 298 302 299 298 301 300 302 300 303 301 300 300 299 301 300 299 297 297 292 295 293 295 294 296 300 303 302 303 300 300 293 298 294 294 287 287 288 289 289 290 293 293 293 294 289 289 290 290 288 290 288 286 283 283 283 281 280 279 283 288 289 288 288 289 289 292 293 292 292 292 292 292 292 291 291
302 301 304 314 316 312 300 291 291 293 295 297 296 296 300 300 298 297 298 301 299 299 299 299 301 303 300 303 301 297 299 289 295 296 293 297 295 297 300 302 302 297 297 295 293 296 289 288 288 285 284 283 284 287 287 289 289 285 286 290 292 292 291 289 287 286 283 285 283 282 279 283 288 286 287 288 287 289 291 293 292 291 291 292 292 292 292 291
300 302 301 304 312 309 298 299 295 293 294 294 293 292 295 296 300 299 298 298 302 300 299 298 300 302 300 302 299 299 300 296 291 296 297 296 296 294 298 301 302 298 300 299 298 300 293 289 288 284 281 280 278 278 280 282 285 287 286 289 291 291 289 287 285 286 282 286 285 284 284 288 288 289 289 288 288 289 290 291 291 292 292 291 291 291 291 291
298 290 297 299 302 302 304 303 301 297 294 294 292 293 295 293 298 301 302 299 302 302 301 301 301 301 299 298 296 296 297 299 295 290 293 291 292 291 293 293 294 297 296 296 297 298 287 289 290 290 287 286 287 285 288 289 284 284 286 288 289 290 291 290 288 285 284 286 284 288 288 286 285 288 287 288 288 288 288 289 290 291 290 291 291 292 291 291
301 294 292 289 299 299 296 298 298 299 294 297 290 294 291 293 296 298 302 296 301 301 300 300 299 297 296 297 295 295 297 297 296 291 291 293 291 290 294 294 295 293 294 294 296 291 287 288 289 290 289 290 290 286 290 290 287 287 286 286 288 288 289 288 286 285 288 284 283 289 288 287 288 288 289 288 288 287 289 289 289 289 292 293 292 290 291 289
294 297 298 299 293 288 292 293 296 297 298 297 293 296 293 293 294 292 298 300 301 302 297 295 298 299 298 296 296 292 294 295 294 291 294 292 287 290 289 293 292 293 293 290 292 292 287 287 291 290 289 291 292 290 290 290 289 288 288 287 286 288 288 287 287 289 287 286 285 287 289 288 290 290 291 291 292 291 292 291 291 291 291 290 289 289 289 289
298 298 298 303 294 294 294 296 296 295 296 296 294 295 292 293 292 295 296 296 297 297 299 291 295 297 298 299 297 293 294 289 289 294 292 288 288 287 286 288 291 292 292 286 287 288 288 288 289 289 289 290 291 291 289 288 287 287 287 288 288 288 288 288 289 290 289 288 290 289 288 289 291 291 292 293 294 293 292 291 291 290 290 290 289 289 289 289
293 294 290 297 296 294 295 295 294 294 291 296 291 292 293 292 292 295 297 296 291 295 300 295 295 297 298 298 298 294 295 296 295 291 293 291 288 288 288 290 286 287 290 287 289 289 290 288 291 288 287 287 289 290 289 287 286 286 287 287 289 288 288 289 289 289 289 289 290 290 288 288 293 294 293 292 291 291 290 290 290 290 290 289 289 289 289 290
298 298 300 294 291 291 292 293 292 290 287 290 291 292 293 293 292 296 295 299 296 294 297 295 297 297 298 297 297 297 299 298 298 297 296 294 290 292 291 289 291 286 287 287 287 288 289 285 286 287 285 285 288 287 288 286 285 285 286 286 286 286 285 288 287 289 288 287 288 288 287 287 290 291 289 290 290 291 290 290 290 290 289 289 289 289 289 289
298 300 299 298 290 294 291 290 292 290 285 289 290 292 292 292 295 296 292 295 297 299 299 299 299 297 294 295 295 298 301 299 296 294 294 294 297 295 296 293 292 289 287 287 287 286 287 286 285 285 283 284 286 287 286 285 284 283 284 287 288 287 289 290 290 290 290 291 287 286 287 291 291 291 289 288 288 289 289 289 288 288 289 289 289 289 289 290
Wind_Speed
2 2 3 3 3 3 3 4 4 5 5 5 6 7 7 8 9 9 9 10 10 11 11 12 12 12 12 13 13 13 16 4 4 6 2 2 3 6 4 4 4 5 3 4 6 5 4 1 2 1 2 1 0 1 1 0 1 0 0 2 4 3 2 1 1 3 5 4 4 4 1 1 4 2 2 0 1 3 2 7 6 8 8 5 2 2 2 4
3 3 4 4 4 4 4 5 5 5 5 5 6 7 8 8 9 9 10 10 11 11 12 12 13 13 13 12 13 13 11 3 4 1 4 3 4 5 3 3 3 2 3 3 4 5 5 3 1 2 2 1 0 0 0 0 0 0 3 1 1 4 0 4 4 5 1 5 4 5 1 1 3 1 2 1 3 4 2 4 6 7 6 5 5 3 4 5
3 3 4 4 4 4 4 4 5 5 5 6 6 7 8 8 9 10 10 10 11 11 12 12 13 13 13 13 13 13 7 2 3 2 3 5 4 4 3 2 3 2 2 3 5 5 4 5 4 4 3 1 1 0 1 0 1 0 1 3 3 1 4 4 5 4 6 3 4 4 2 1 3 0 1 1 4 2 0 6 4 5 5 4 4 4 4 5
4 4 4 4 5 5 5 5 5 5 5 6 7 7 8 8 9 10 10 10 11 12 12 13 13 14 13 13 12 9 3 3 1 3 2 6 4 2 2 3 4 4 4 5 3 5 3 4 4 3 2 3 2 1 2 0 1 1 1 3 1 2 2 3 6 5 5 6 3 3 2 1 1 1 1 2 3 1 5 5 3 6 5 5 4 4 4 5
4 4 4 4 5 5 5 6 6 6 6 7 7 8 7 8 8 9 10 11 12 12 13 14 14 14 13 12 12 4 3 1 1 2 2 5 3 2 3 4 5 4 5 4 4 3 3 5 3 3 1 2 3 1 2 1 1 2 1 2 2 2 2 5 7 6 3 3 1 2 1 0 2 1 3 2 3 1 1 2 4 4 4 4 3 3 4 4
5 4 5 5 5 6 6 7 7 7 7 7 7 8 8 8 8 10 11 12 13 13 14 14 14 14 14 13 6 3 2 1 3 3 3 5 1 2 3 4 5 4 4 4 3 3 4 3 2 3 2 2 1 1 0 1 0 1 1 2 3 2 2 1 4 2 1 1 0 1 1 2 1 3 3 0 1 4 3 3 4 4 3 3 3 3 4 4
5 5 6 6 6 7 7 7 7 8 7 7 7 8 8 9 10 11 12 12 13 13 14 14 14 14 16 11 2 2 3 1 2 1 2 5 3 3 3 4 3 3 3 4 2 3 0 5 2 2 3 3 1 1 3 2 1 1 0 1 3 2 2 1 4 3 1 2 0 1 1 1 2 4 1 2 4 7 5 4 4 3 3 2 5 4 4 4
7 7 6 6 7 7 8 8 8 8 8 8 8 9 9 10 11 11 12 13 13 13 14 14 13 12 14 4 1 1 3 1 2 2 2 4 3 2 2 2 2 2 3 3 4 4 4 4 4 4 3 3 1 2 1 3 3 3 0 1 3 1 1 2 3 2 1 2 1 2 1 4 3 2 1 4 7 6 6 3 3 3 3 4 4 3 4 3
7 7 7 7 7 8 8 8 8 8 9 9 9 10 10 11 11 12 12 13 13 13 13 13 13 12 8 1 2 4 0 1 3 2 4 3 2 2 2 0 1 2 3 2 2 3 2 1 2 3 3 6 3 3 1 2 0 3 3 2 1 1 1 4 3 3 4 2 2 2 5 4 5 6 1 8 7 7 6 4 4 3 4 4 3 3 3 4
8 8 8 8 7 7 7 8 8 9 9 10 9 10 10 11 11 12 12 13 13 13 13 12 12 12 4 1 2 3 1 3 1 1 2 1 3 2 0 2 2 2 2 1 1 3 1 3 3 3 3 4 0 1 1 1 0 2 3 3 3 4 2 4 4 4 6 4 4 4 3 5 3 4 3 4 8 7 6 5 3 4 4 3 3 3 3 4
8 8 8 8 8 8 8 8 9 8 9 9 10 10 10 11 12 12 13 13 13 13 12 12 10 10 3 3 2 4 1 2 0 2 2 2 3 2 2 3 3 3 4 0 2 4 4 4 4 2 1 1 2 2 1 1 1 1 2 4 6 7 6 4 4 6 3 3 5 4 5 1 1 2 4 8 7 7 7 6 5 4 4 3 3 3 2 4
8 9 8 9 9 9 8 8 8 9 9 9 10 10 10 11 12 12 13 14 14 12 12 10 9 3 3 4 4 2 3 1 1 2 1 0 3 2 2 3 2 2 3 4 1 3 3 3 4 1 1 3 1 1 1 0 1 1 2 3 5 3 7 8 7 5 4 1 2 4 3 4 4 6 4 9 7 6 6 6 5 4 4 4 3 3 3 4
9 9 8 8 9 9 9 9 8 8 9 9 9 10 11 11 12 13 13 14 12 12 11 10 7 2 2 3 2 0 4 1 1 3 3 2 3 3 2 1 1 1 3 2 3 2 2 2 2 4 1 1 3 0 1 1 1 1 4 3 5 6 8 10 6 5 4 2 5 5 2 6 13 5 7 7 7 6 6 5 4 4 4 4 4 3 4 2
6 6 7 7 9 10 10 10 9 8 9 9 10 10 10 11 12 13 13 13 14 13 9 8 3 3 1 2 1 2 1 1 2 3 3 3 4 1 2 1 0 0 0 1 1 1 1 1 2 2 1 1 1 1 1 1 1 1 2 3 3 3 3 3 6 7 4 3 6 3 3 5 4 7 6 6 6 7 6 5 5 5 5 4 3 4 4 4
8 6 6 7 8 10 11 11 12 8 9 10 10 10 10 11 12 13 13 12 11 8 9 7 3 2 3 2 1 2 4 5 4 3 2 3 3 2 2 2 2 1 2 2 1 1 1 1 1 1 1 0 1 1 3 3 3 3 1 4 3 4 1 3 5 8 6 1 4 4 2 7 5 5 6 6 6 5 5 6 5 5 4 5 4 4 5 5
9 8 7 7 8 10 11 9 4 4 6 10 11 11 11 12 13 13 12 11 12 11 6 2 4 2 4 5 1 1 1 3 3 5 2 2 0 0 4 3 3 2 3 2 0 1 1 2 1 1 2 1 1 2 3 3 3 4 6 3 4 4 3 1 4 5 1 5 3 7 4 3 1 4 5 4 6 6 4 5 6 6 6 5 4 4 5 5
10 9 8 7 8 10 11 8 5 4 6 8 10 13 13 12 12 11 12 10 6 3 2 2 0 5 4 1 3 3 5 2 1 1 1 1 1 4 4 3 2 3 1 2 1 1 1 2 1 1 1 2 2 3 2 4 4 4 4 5 4 5 3 3 1 2 3 5 4 6 5 7 1 8 7 6 7 7 5 5 6 6 4 5 4 4 5 5
12 11 9 8 8 10 10 7 6 6 7 9 9 10 10 11 10 10 8 5 4 3 4 5 3 1 6 4 4 3 5 5 2 4 2 1 2 2 3 3 3 3 3 3 0 2 2 1 1 2 1 3 3 3 5 6 6 5 3 4 5 5 7 4 3 5 4 4 4 5 10 9 4 7 8 9 8 8 7 6 7 6 6 5 4 4 4 5
13 12 11 11 9 10 10 8 7 7 8 8 11 13 14 12 5 4 4 2 2 1 0 4 5 6 3 6 4 6 3 3 5 3 1 2 1 2 1 1 2 5 3 3 3 4 2 0 1 1 4 5 7 8 9 8 4 7 5 2 3 3 3 1 2 3 4 4 5 6 7 6 4 7 5 6 7 8 7 5 5 6 6 6 5 4 4 4
13 13 12 11 10 11 11 8 8 8 5 7 6 5 2 1 1 2 3 5 7 7 2 5 11 2 4 7 5 2 5 2 3 1 5 2 3 3 3 3 1 2 2 3 4 4 4 4 4 6 8 7 7 9 10 8 7 4 1 3 5 5 4 5 3 1 0 1 6 6 6 7 8 5 11 9 7 5 5 6 6 5 6 6 6 6 6 5
14 13 12 11 10 12 11 11 9 7 4 5 7 4 2 2 3 3 3 9 12 12 13 4 12 10 4 7 5 9 6 2 2 3 3 2 2 7 4 4 3 3 4 5 4 1 1 5 8 9 8 7 8 10 10 8 9 3 3 4 5 2 6 4 2 3 1 1 2 3 5 8 7 6 6 6 7 8 9 8 8 7 7 6 7 7 6 7
15 14 13 12 11 11 10 11 10 6 4 5 5 5 2 3 1 1 1 4 7 17 14 13 5 1 2 4 7 4 2 4 2 5 0 2 5 7 5 5 7 5 5 5 4 2 4 9 9 10 7 7 6 3 3 7 6 4 3 2 4 6 4 5 4 2 1 2 6 5 8 9 8 7 4 13 13 10 11 10 10 9 8 7 6 7 7 7
15 14 14 12 11 11 9 11 9 6 3 4 4 6 5 1 1 1 2 4 8 6 12 11 12 11 3 4 4 1 5 7 7 8 7 4 5 5 7 7 7 6 5 8 7 4 5 7 12 9 7 8 3 3 1 1 2 2 3 3 6 3 3 3 1 0 2 1 2 3 9 10 9 9 8 11 10 4 2 2 2 5 9 7 7 7 8 7
16 15 14 12 11 12 12 12 8 5 5 7 8 7 1 1 3 5 2 3 5 4 9 10 13 11 11 8 6 7 9 4 5 10 6 7 10 4 3 9 7 7 7 9 11 9 11 2 4 10 9 5 5 4 3 3 5 4 6 5 4 4 5 6 3 4 4 4 3 5 8 11 8 11 11 3 3 5 1 4 2 4 3 4 5 5 6 7
16 15 14 12 11 12 10 9 6 5 6 8 11 8 8 7 4 3 1 3 5 6 3 6 4 4 6 4 8 7 5 4 6 5 10 11 8 3 5 4 3 8 7 8 10 11 11 7 1 5 7 5 4 4 5 4 5 5 6 9 7 6 6 5 4 4 3 3 4 5 4 4 7 14 11 6 2 3 3 4 3 3 1 5 5 6 5 6
17 16 15 14 13 13 12 6 5 7 9 10 4 6 8 6 4 0 1 2 8 3 3 7 4 6 7 4 6 4 4 7 1 4 11 6 1 3 3 6 4 7 9 8 10 5 4 2 6 5 5 4 5 5 4 7 5 3 3 2 9 7 4 2 4 3 4 3 2 1 3 8 3 6 2 5 6 6 4 7 7 7 6 5 5 5 5 7
17 18 16 16 15 14 9 6 7 9 7 8 8 5 1 1 1 1 1 1 10 6 8 0 5 2 2 10 10 6 3 5 1 7 4 3 5 1 6 6 3 2 2 1 0 6 5 2 2 2 4 5 4 6 4 8 4 4 1 3 2 0 0 1 1 3 5 2 2 3 3 7 13 7 3 7 7 7 7 8 8 9 9 9 8 8 7 7
19 19 18 18 17 17 4 4 10 11 6 1 0 5 3 2 2 0 1 1 6 6 6 3 1 3 1 10 11 11 2 11 5 4 4 1 1 1 3 8 9 6 4 2 10 2 4 5 5 5 5 5 8 6 4 8 4 1 1 3 2 2 0 1 1 3 3 3 6 5 4 3 7 2 9 11 5 7 12 12 11 10 10 11 10 11 10 8
20 20 20 19 17 18 11 4 8 9 6 3 2 2 5 3 1 1 1 5 1 2 4 6 4 2 6 9 10 5 3 3 1 3 2 2 3 1 6 8 4 5 8 9 9 2 2 2 5 8 6 7 2 2 2 7 7 1 2 4 3 2 1 1 1 1 3 2 10 6 7 6 15 3 2 1 3 9 11 13 13 12 12 12 12 11 12 10
22 21 21 20 13 13 11 5 5 2 8 6 4 3 4 4 2 2 3 9 1 3 3 2 3 10 9 12 9 4 3 2 3 3 1 2 2 1 2 2 1 3 3 7 9 0 2 3 2 1 4 1 4 3 4 3 3 5 4 4 2 1 1 1 1 0 3 8 12 7 10 7 9 2 9 8 8 11 8 3 6 9 9 10 9 12 11 11
23 23 22 20 14 10 6 9 8 2 6 8 7 6 5 0 3 5 9 8 6 1 2 3 4 10 13 13 8 3 3 4 4 6 4 1 1 3 1 2 2 2 1 2 4 2 2 2 0 1 4 4 3 3 4 2 2 6 2 3 2 0 2 0 1 1 2 11 3 13 10 13 9 3 5 9 2 7 9 10 13 13 13 12 10 10 11 11
23 24 24 18 11 9 15 12 11 6 6 10 10 8 6 5 4 9 9 8 3 6 11 6 5 9 14 11 10 13 11 6 7 7 9 8 7 10 11 10 8 5 6 7 7 2 6 4 2 2 5 5 3 4 1 1 1 2 4 4 6 2 2 2 2 4 8 10 1 1 9 5 17 10 4 2 2 3 4 10 15 15 13 13 11 12 10 10
25 25 26 18 13 11 11 7 11 7 8 10 9 5 6 6 11 12 12 8 4 3 2 8 11 13 13 11 6 6 4 7 7 6 5 3 7 8 6 8 8 8 4 6 8 3 5 5 8 5 1 6 7 9 3 1 6 6 7 8 5 3 4 4 4 4 4 4 2 0 2 6 2 5 15 20 2 2 3 7 11 15 16 15 13 12 11 10
25 24 18 18 16 10 9 11 11 12 11 9 10 4 1 9 15 14 18 14 6 3 7 3 9 7 12 10 7 12 6 4 11 7 9 6 8 8 9 11 9 10 1 3 8 8 4 2 8 9 6 9 12 14 13 5 8 11 5 9 9 8 2 3 6 8 5 2 0 2 4 6 5 6 3 3 3 3 4 5 9 10 11 10 10 10 10 11
26 22 17 13 13 13 13 12 13 14 9 8 9 12 17 16 13 18 18 18 9 1 2 6 9 9 7 5 3 7 1 3 7 7 8 9 10 10 12 14 16 8 3 2 4 3 13 7 2 16 1 12 14 8 4 6 3 5 5 2 4 9 1 9 1 0 1 2 2 1 5 2 5 0 1 0 4 4 4 5 9 9 10 11 11 12 12 11
16 12 16 11 16 15 12 12 14 14 13 12 13 13 19 19 18 17 11 9 9 6 6 7 4 7 6 6 2 10 2 4 8 5 5 10 7 8 9 5 12 16 12 12 4 4 2 5 4 4 3 12 11 5 6 9 5 5 5 9 9 1 5 5 2 1 1 2 10 4 5 6 3 1 2 2 4 2 1 3 8 10 11 12 11 12 12 12
12 10 11 12 16 14 15 14 15 14 13 15 15 16 17 14 14 2 5 15 15 12 9 9 9 9 7 8 5 9 4 4 6 6 6 3 6 11 7 9 12 15 16 9 3 2 7 3 2 3 4 1 1 1 2 2 1 7 5 6 3 4 3 2 5 0 2 8 8 8 9 3 3 8 4 4 4 3 4 4 7 8 10 13 11 12 13 14
10 6 10 14 16 15 16 14 16 14 14 15 19 18 10 17 11 9 4 8 9 14 11 12 4 12 8 9 8 11 7 8 9 6 4 10 6 8 13 6 11 16 19 9 4 2 2 4 3 1 3 2 3 1 1 1 3 3 5 1 9 3 4 3 2 8 4 7 5 3 7 8 11 9 3 6 8 9 9 7 7 11 11 12 11 11 10 9
8 7 6 19 14 15 16 15 15 18 14 12 13 13 12 18 14 10 9 8 6 10 15 13 10 7 11 9 6 11 15 10 11 10 6 6 7 8 16 11 9 16 14 12 6 4 2 5 1 2 1 1 1 4 8 5 2 1 0 2 2 2 1 6 9 1 3 7 1 7 7 10 8 7 14 14 15 13 11 10 12 14 15 13 13 13 14 15
7 5 13 12 20 20 19 17 12 12 10 20 14 15 9 14 12 12 10 8 8 11 9 11 13 11 12 14 9 9 11 11 15 11 9 5 7 4 12 12 6 10 15 17 9 4 3 2 5 1 4 5 3 6 10 13 12 3 1 3 1 1 0 2 2 6 4 3 4 6 9 3 2 3 14 14 15 13 17 17 13 12 14 13 13 15 15 15
6 5 5 13 23 20 18 16 15 17 15 8 13 17 11 10 11 12 13 10 4 6 7 9 11 14 10 8 13 10 8 10 8 9 9 6 12 3 6 12 8 9 5 5 8 4 3 4 9 3 1 6 5 6 13 11 15 14 15 14 15 11 6 5 9 2 4 4 6 3 13 2 2 2 3 10 10 11 14 16 15 13 13 14 13 14 15 15
7 7 6 14 22 23 18 20 10 9 9 14 16 16 8 5 2 8 10 9 10 5 2 0 3 5 10 12 8 7 8 10 10 9 8 12 9 7 6 14 12 14 14 10 13 10 6 2 2 6 8 9 7 1 1 1 1 4 7 6 8 6 4 5 10 5 1 7 1 2 4 9 2 2 2 3 2 8 12 11 12 12 13 14 13 13 13 14
5 8 3 17 20 26 18 16 11 12 11 10 5 7 1 6 10 7 9 10 11 7 3 5 6 6 7 6 9 7 12 6 12 12 8 10 8 9 7 17 12 13 11 1 3 1 8 3 4 6 3 2 2 2 0 0 0 1 3 1 6 12 15 13 7 2 5 2 3 2 6 6 1 3 2 1 2 2 6 10 11 10 10 10 11 12 13 12
2 1 2 9 22 19 15 14 14 11 10 10 12 12 11 4 10 10 9 12 11 9 10 5 3 6 4 3 2 7 11 4 8 13 9 8 6 3 4 14 17 10 12 10 9 9 4 3 5 2 3 1 1 1 2 2 1 3 4 9 10 7 7 4 1 2 2 10 7 7 16 5 2 0 1 1 3 4 4 6 9 9 6 9 10 10 11 11
1 1 2 3 9 17 14 13 14 14 14 14 12 18 14 10 8 15 15 11 7 9 5 12 11 3 5 1 2 1 4 12 3 8 6 4 3 2 6 1 13 12 5 1 4 13 8 7 11 10 14 14 11 10 10 8 12 5 3 6 9 13 12 8 9 10 10 9 9 8 14 3 2 1 1 1 1 2 1 3 5 9 11 10 7 8 10 11
6 5 0 3 2 5 10 5 11 13 14 13 13 15 17 15 10 13 13 14 12 9 11 5 6 10 10 7 9 8 11 8 8 1 7 3 2 1 2 5 4 3 1 5 8 11 4 5 12 16 16 16 14 1 1 9 4 9 12 14 15 12 11 8 5 5 16 5 7 19 14 4 4 4 4 4 4 5 5 4 5 7 7 8 8 10 11 12
1 8 6 2 2 9 5 1 9 13 15 15 11 9 19 22 13 8 14 6 13 14 10 11 4 8 11 13 14 15 15 11 3 2 5 7 2 0 4 4 2 4 6 4 4 4 2 2 14 15 15 17 6 4 2 13 13 15 12 14 14 14 15 14 13 18 5 3 17 14 6 13 11 6 7 6 5 4 5 6 5 4 9 12 11 7 8 7
10 4 10 4 5 3 9 11 5 9 20 16 11 5 14 17 16 10 10 19 11 12 9 1 10 16 17 19 15 12 11 14 10 10 8 3 3 1 1 2 2 1 5 2 1 4 6 10 11 10 17 18 6 4 4 3 4 5 13 14 16 17 15 19 21 18 8 13 22 5 14 15 12 10 11 10 9 10 11 12 11 7 5 6 9 10 10 10
1 1 1 7 9 4 6 2 2 5 11 17 10 14 11 16 20 20 11 9 13 9 16 11 16 22 19 15 13 11 12 8 12 13 9 5 7 5 3 2 4 3 1 2 1 2 1 7 4 8 16 14 14 12 4 4 3 1 5 12 15 18 22 23 23 21 17 16 20 6 6 10 3 7 11 11 8 8 4 5 7 9 9 9 9 9 10 10
6 5 2 1 2 4 5 5 3 3 8 10 13 14 15 16 20 15 9 8 8 16 16 21 23 19 17 18 17 15 15 19 18 14 8 10 4 6 8 7 5 2 2 4 4 3 7 8 9 5 8 14 14 11 7 6 4 9 7 7 12 16 18 20 20 19 16 18 22 13 9 16 4 2 5 1 4 7 7 8 8 7 9 9 9 9 9 10
3 3 1 7 6 4 4 6 7 6 3 3 8 9 10 16 18 16 14 12 14 11 13 22 26 19 13 17 19 19 20 18 17 15 9 14 15 12 11 5 11 8 7 5 3 1 4 4 3 4 9 14 9 10 10 4 2 7 14 16 16 8 10 15 17 16 14 21 21 16 15 18 3 4 4 3 4 7 8 7 7 7 7 8 8 9 10 11
2 2 4 3 8 8 9 4 5 6 8 7 7 5 7 17 12 6 5 2 7 10 9 17 15 10 11 14 20 25 21 8 4 1 4 7 1 2 4 4 10 12 10 8 2 5 7 5 6 6 10 15 3 9 8 5 1 7 19 29 17 11 12 12 13 14 18 17 13 15 21 11 7 6 7 1 2 3 4 5 4 4 6 9 10 11 12 11
Wind_Direction
298 314 324 334 332 329 339 358 354 352 352 354 349 347 351 353 353 354 359 355 349 349 345 341 340 336 334 337 339 336 334 325 301 266 224 66 319 321 326 302 318 310 346 317 280 261 301 208 303 45 277 212 309 346 273 247 11 5 226 206 252 186 83 121 332 91 150 116 146 155 67 285 136 193 94 11 237 227 106 93 97 77 74 98 112 91 63 62
308 316 329 329 331 339 341 347 348 342 351 352 349 350 352 351 352 351 352 351 349 344 342 340 337 337 337 339 340 341 335 314 290 341 53 359 334 331 336 347 327 4 298 276 347 352 320 336 69 301 285 267 271 43 282 345 110 326 285 279 345 18 275 353 62 61 319 118 118 93 14 337 67 139 110 253 218 180 169 101 116 98 109 101 83 58 51 57
298 310 323 323 324 332 334 331 336 338 341 349 351 351 352 351 348 349 345 350 345 342 339 339 339 338 339 340 340 340 340 305 256 131 41 13 334 335 3 5 328 2 313 335 338 330 338 335 327 324 277 302 187 101 251 315 354 226 66 312 44 65 60 35 50 76 28 54 130 136 87 325 99 351 142 214 300 185 44 136 139 122 120 86 77 51 45 53
283 302 313 324 331 333 333 332 334 330 340 347 346 348 349 347 346 344 344 342 342 341 340 342 340 340 337 334 340 328 299 291 209 92 82 352 338 1 3 348 341 283 256 267 327 309 343 288 290 290 307 262 137 222 240 33 24 3 254 10 76 30 119 59 63 59 47 10 52 48 94 253 178 98 47 308 333 283 87 24 28 100 93 94 84 60 40 53
294 290 304 316 324 320 328 330 328 332 338 343 344 339 343 340 341 340 343 343 342 342 343 341 341 337 333 332 328 301 318 241 95 56 356 323 333 29 2 341 326 320 306 305 288 260 291 310 306 282 276 271 128 221 59 85 101 310 60 105 60 331 54 82 75 47 66 25 351 63 291 35 41 194 195 226 225 117 67 50 53 60 64 70 65 72 61 54
279 293 304 314 318 321 323 328 328 331 333 333 338 333 331 335 339 342 344 346 343 341 342 341 337 335 331 322 314 257 288 20 183 146 350 313 41 32 1 336 324 324 302 294 315 337 306 258 255 262 246 264 95 31 83 47 16 327 108 62 33 48 60 84 101 62 322 87 319 273 17 10 341 312 281 217 45 121 76 98 92 82 83 95 86 69 66 58
268 288 300 311 315 324 328 325 328 327 328 325 330 328 328 335 341 347 345 344 342 339 338 338 336 334 332 305 227 275 265 98 49 249 259 298 304 41 345 306 276 311 309 294 291 313 333 299 276 279 329 296 177 100 73 354 268 220 270 142 84 333 41 78 87 118 82 46 252 18 4 301 309 282 19 120 110 102 110 107 101 104 107 98 86 72 76 73
279 284 294 303 310 320 325 325 327 325 323 324 327 328 330 336 342 344 343 339 337 335 336 336 334 335 351 345 299 230 236 110 60 156 220 270 200 172 288 281 291 322 303 340 339 324 360 282 288 10 255 292 50 330 63 302 240 278 246 63 81 9 253 101 121 161 191 221 293 64 322 254 234 249 125 126 131 132 119 117 110 118 104 93 80 86 91 79
272 283 289 298 300 313 318 320 324 325 322 324 327 329 333 337 336 338 336 334 332 330 333 335 333 338 312 268 266 310 305 61 21 89 189 201 69 92 312 87 184 296 324 318 306 303 343 339 311 35 357 345 35 319 126 45 318 19 57 303 141 225 209 183 166 196 187 213 185 239 250 256 254 70 271 128 127 126 130 118 133 129 120 102 97 84 76 84
267 275 280 290 298 302 309 319 322 324 325 322 327 329 330 331 331 330 330 328 326 326 328 332 339 332 329 244 280 267 133 278 158 121 58 29 135 89 242 352 330 292 285 66 327 268 281 360 4 329 22 273 149 324 46 223 245 280 4 332 303 269 238 172 218 213 186 200 170 207 234 253 125 109 237 106 133 137 143 138 141 151 113 108 108 90 63 81
254 267 274 280 289 295 303 311 321 324 325 322 322 322 322 325 325 324 325 323 324 320 327 329 342 336 327 292 283 257 192 240 123 108 105 274 158 159 41 32 16 322 309 108 275 11 10 333 11 324 55 11 281 103 324 65 279 338 3 303 263 248 244 216 206 240 128 211 187 191 242 303 128 101 237 143 143 150 148 147 152 143 132 117 109 98 91 74
247 249 263 276 281 290 296 303 311 319 318 321 316 316 314 318 319 319 320 319 317 319 325 327 339 323 290 292 240 255 231 42 190 136 163 333 61 92 51 35 360 33 334 326 70 52 30 342 327 303 329 347 93 168 85 32 314 10 287 297 290 246 221 207 214 207 174 253 151 179 275 235 181 230 127 136 144 168 150 149 155 144 133 122 118 117 92 72
238 250 260 272 277 282 288 287 299 311 315 313 311 310 309 312 316 315 317 315 314 315 317 324 325 275 324 256 212 4 277 151 117 138 111 92 95 73 87 58 348 13 26 335 31 15 12 338 334 294 19 303 316 146 160 270 188 290 245 231 295 273 258 216 181 128 145 153 171 120 279 220 222 160 129 133 156 164 151 155 156 145 141 144 140 126 96 87
232 236 250 260 275 281 283 284 286 296 311 307 306 301 307 311 308 310 313 307 305 301 308 319 328 271 281 266 57 282 356 337 165 176 131 168 133 70 128 139 10 36 348 94 56 324 9 319 301 293 60 359 335 258 257 176 231 237 303 143 235 331 288 91 136 142 166 144 173 169 215 306 109 128 145 160 157 171 162 168 162 151 147 145 137 132 128 105
222 221 235 247 267 273 278 290 286 280 295 301 293 293 302 307 306 304 303 300 292 314 313 300 235 265 209 217 30 105 296 296 214 151 144 193 132 128 128 142 91 67 53 65 98 309 252 315 306 235 136 154 177 175 276 256 192 217 324 253 216 196 228 219 143 165 172 246 219 146 283 250 168 155 153 165 161 184 179 170 160 154 156 152 155 157 132 126
215 216 215 237 256 266 277 287 255 270 299 292 281 285 299 297 299 300 293 282 292 292 283 271 167 284 325 255 115 131 244 206 163 97 67 338 89 112 122 107 134 138 171 65 116 228 249 209 277 324 115 168 230 217 281 303 256 194 180 276 292 194 209 186 193 200 13 132 207 186 236 72 109 153 166 163 175 189 200 176 157 166 159 149 154 154 126 127
207 214 214 216 245 264 277 269 237 262 282 272 278 283 284 281 280 285 287 285 292 218 240 325 120 159 268 69 115 219 195 108 327 114 92 360 11 119 121 139 146 126 77 134 171 258 153 237 132 347 255 252 215 204 254 260 263 243 176 222 227 224 238 223 51 249 159 168 180 228 245 252 167 165 170 180 186 185 199 196 165 160 157 159 141 144 147 149
202 201 205 215 229 256 262 246 237 252 260 271 274 282 285 294 305 309 276 247 239 253 249 232 270 281 233 97 217 159 68 113 162 114 99 58 303 223 165 186 120 145 151 136 66 236 147 225 96 245 186 194 233 212 161 221 198 221 186 209 260 250 227 235 180 186 161 228 249 204 222 248 198 180 178 184 198 186 197 198 168 159 162 149 151 157 157 139
200 193 193 207 220 241 253 230 222 243 252 275 278 273 276 281 289 256 279 166 185 92 244 186 183 182 262 175 89 98 70 98 84 130 151 177 244 246 225 63 178 152 177 192 183 198 139 275 106 263 242 200 205 209 209 225 272 287 322 325 337 338 310 260 43 153 188 175 224 240 246 249 225 180 175 191 196 198 201 186 158 165 154 155 162 150 143 138
200 199 196 200 211 233 246 217 216 229 243 269 262 244 234 202 173 197 215 224 240 220 296 154 204 63 85 129 116 49 176 253 130 222 136 171 140 152 178 195 167 235 196 191 135 217 129 181 194 199 217 216 207 217 229 241 259 315 343 283 277 286 275 294 142 111 171 318 236 248 259 264 267 201 192 184 185 202 207 192 170 167 161 162 161 158 150 140
197 190 192 195 204 232 240 221 209 224 220 267 291 276 212 225 205 221 160 226 225 243 261 237 193 228 295 112 130 158 128 194 275 140 156 171 202 154 174 186 151 209 230 217 151 349 31 208 224 222 224 222 233 216 219 245 263 245 293 306 290 251 268 261 216 188 107 153 272 264 280 266 266 268 176 166 170 203 206 194 181 181 172 168 162 151 152 116
194 184 189 194 203 227 235 205 209 213 211 254 278 236 357 63 347 158 247 270 210 227 240 248 276 133 170 141 184 209 260 127 185 144 341 181 181 192 154 195 177 208 185 213 84 73 214 222 227 230 234 248 254 322 238 218 242 244 221 248 258 254 264 271 93 140 77 85 271 261 261 268 265 261 177 177 185 203 204 193 189 175 172 166 165 153 142 132
192 187 188 192 203 221 218 198 210 197 215 225 228 243 286 8 13 294 270 255 273 207 217 228 235 233 177 130 161 282 182 182 178 172 179 200 150 241 152 190 198 218 204 183 193 174 242 236 233 236 236 236 209 187 299 341 303 265 244 225 236 263 287 292 92 125 192 194 278 334 301 276 269 258 244 193 190 184 149 169 160 170 168 164 170 161 150 154
193 188 186 190 194 213 217 211 208 186 221 226 234 225 116 96 45 340 228 260 303 231 199 203 211 212 202 157 176 180 197 200 206 182 165 173 169 170 203 185 205 207 216 194 205 209 220 227 195 200 222 220 209 193 200 207 247 212 219 233 239 229 235 214 226 193 163 236 231 285 280 275 246 248 236 135 63 77 85 73 47 9 100 133 129 127 154 158
191 187 183 185 198 205 211 195 211 208 192 230 247 252 293 312 357 3 349 290 233 246 143 215 166 232 196 44 134 179 208 258 231 132 171 182 156 138 220 182 214 221 213 198 216 238 248 239 99 211 192 177 211 232 200 187 237 250 215 206 230 239 252 268 308 4 358 301 203 159 319 264 226 224 223 148 102 178 148 142 183 171 140 110 128 147 147 143
189 185 183 183 199 198 178 191 205 185 198 216 221 224 231 250 270 357 310 252 280 199 30 217 111 235 110 151 132 176 78 227 253 149 162 208 11 181 119 219 179 223 217 214 218 231 246 129 164 179 169 191 196 218 205 163 229 247 275 247 217 223 269 343 325 18 297 254 331 351 191 277 358 315 130 176 192 205 160 198 198 182 178 158 158 159 150 148
188 185 183 188 195 182 170 226 145 169 198 238 216 234 172 230 103 356 191 257 274 163 169 70 173 284 12 162 148 120 206 208 103 95 139 5 177 7 197 194 181 246 1 231 36 249 112 158 77 132 157 172 195 213 202 165 186 246 290 352 72 83 146 253 241 209 249 325 261 171 167 275 288 232 158 182 182 204 200 208 203 191 183 175 173 165 158 157
189 186 185 190 196 188 233 148 154 181 187 162 326 187 148 106 65 168 132 324 265 117 147 233 213 323 345 162 162 167 3 118 131 206 12 297 15 80 219 199 194 181 203 171 224 17 142 176 147 188 186 186 211 213 181 181 178 195 257 84 63 89 350 356 210 261 243 359 267 175 181 288 253 270 167 161 183 211 218 205 204 192 179 178 177 168 165 158
189 187 186 190 197 194 232 255 184 190 170 143 88 108 106 113 182 150 166 234 142 114 336 122 293 105 109 159 186 137 154 351 301 35 282 22 350 187 197 229 229 182 201 209 231 179 348 178 191 183 174 216 163 25 352 165 201 204 150 66 88 91 59 215 341 235 300 244 249 173 178 216 273 206 116 197 235 234 224 204 196 188 179 178 175 164 161 155
189 188 187 187 182 196 218 272 259 165 134 124 115 99 145 141 139 181 123 250 117 219 114 91 195 173 157 157 192 135 153 69 48 165 140 167 182 324 355 332 291 269 249 222 235 113 147 155 152 126 219 188 105 40 29 47 104 152 134 99 67 76 162 28 171 45 353 248 243 180 191 177 279 184 188 161 222 211 214 161 174 174 173 177 172 161 160 157
189 187 188 182 192 184 160 213 203 137 136 123 125 150 144 141 187 171 216 227 360 93 79 147 126 141 161 152 176 194 185 115 138 147 130 175 126 338 218 67 324 16 349 332 280 135 123 64 329 273 67 105 113 65 19 334 132 135 143 124 125 21 47 90 303 164 209 264 197 182 192 188 218 274 202 212 198 202 183 183 170 174 176 175 169 164 157 155
190 187 187 190 187 152 189 197 154 166 151 136 137 152 167 138 305 202 223 71 284 179 155 160 154 164 174 177 177 174 174 151 152 179 159 179 167 179 199 186 157 174 243 208 240 123 238 193 133 59 287 142 157 96 11 31 343 166 109 109 125 222 70 280 134 218 207 242 302 290 187 219 238 229 290 136 253 255 199 170 170 170 171 172 167 163 158 155
189 188 188 196 182 197 197 105 146 145 137 143 146 166 164 162 209 206 229 146 245 116 159 135 165 177 178 175 194 152 138 173 157 186 126 166 166 222 219 213 187 179 202 182 214 125 273 181 187 179 47 224 160 177 152 252 227 166 161 163 133 191 217 243 202 227 265 264 275 190 10 263 335 268 226 243 209 7 47 149 159 164 170 173 166 160 155 158
192 186 185 196 197 202 172 156 153 148 143 156 154 118 71 192 226 214 223 219 206 14 123 145 156 166 173 183 177 158 173 217 154 181 161 166 187 198 206 230 207 220 173 142 181 175 239 319 228 141 238 169 198 203 192 167 156 199 179 167 184 174 164 238 190 217 223 229 315 280 107 232 122 244 346 15 78 18 0 125 152 159 158 155 150 144 146 155
193 188 192 188 196 205 186 164 150 143 138 160 174 170 177 209 217 213 219 219 227 143 166 138 149 158 187 223 101 185 132 159 171 156 187 169 203 205 192 201 211 200 164 188 209 128 212 235 189 179 83 156 196 211 148 117 145 210 189 190 233 218 126 238 162 14 342 355 300 250 201 210 187 218 130 108 56 35 355 96 128 139 144 145 150 158 164 165
199 197 190 189 200 197 181 167 160 153 161 172 184 189 199 194 212 199 225 190 199 188 152 140 154 169 186 184 102 185 137 118 184 169 218 212 219 212 209 190 192 193 175 194 154 179 140 232 103 90 133 169 203 171 201 142 188 204 148 213 205 29 198 275 2 53 103 356 251 151 287 301 294 270 159 132 92 51 360 134 140 149 154 155 164 166 168 170
197 195 211 196 206 187 182 175 164 164 174 185 189 204 209 222 220 159 184 188 188 144 154 168 200 180 174 196 165 183 193 99 171 158 213 151 268 225 203 213 180 196 212 170 222 214 157 191 326 115 183 360 40 312 212 29 98 102 194 220 101 80 72 149 241 42 187 237 264 151 211 228 145 265 129 128 144 193 217 199 169 156 157 168 175 175 174 174
200 211 218 212 200 176 182 179 171 175 183 189 200 208 213 229 214 222 163 189 155 163 198 204 214 179 195 184 186 175 174 185 177 174 218 159 258 171 201 209 183 196 204 209 180 269 122 265 202 298 54 3 353 45 46 67 40 161 183 244 143 247 247 220 77 249 228 237 275 233 201 228 186 221 131 204 196 199 198 203 174 173 177 182 174 175 173 163
198 193 219 216 183 169 177 177 183 176 186 205 189 218 220 227 210 213 206 205 200 180 207 212 217 191 206 208 186 174 165 195 157 192 166 199 223 181 191 180 198 196 195 186 219 227 99 201 294 314 22 160 129 158 194 201 259 53 304 341 268 90 215 151 200 281 135 261 292 267 140 256 179 214 180 196 204 193 177 189 201 187 184 181 178 175 174 176
178 203 233 188 162 173 170 176 191 194 199 196 186 229 205 219 208 213 225 222 213 193 211 218 206 227 201 221 174 173 197 189 165 195 201 174 203 165 185 182 179 187 184 190 208 129 246 134 254 216 308 115 197 189 202 177 184 214 183 229 213 179 295 102 307 206 187 221 231 281 278 261 242 197 173 195 197 182 178 190 192 190 188 186 180 176 180 183
204 228 265 141 167 162 162 178 194 197 202 205 204 214 208 210 200 208 217 234 278 220 235 218 207 212 215 199 218 172 174 194 186 187 197 199 184 221 195 176 174 174 127 157 202 164 193 158 210 103 277 225 246 191 209 197 195 186 185 199 190 168 178 184 248 144 221 210 236 204 258 252 253 2 189 190 187 177 189 181 186 192 182 182 182 184 184 182
203 224 240 161 149 154 165 186 200 189 199 191 200 202 213 178 252 206 216 235 249 251 71 280 282 246 216 219 203 162 169 192 191 197 204 209 201 218 180 181 181 144 147 172 198 197 161 134 137 198 209 211 225 353 345 73 61 227 197 218 179 196 169 197 228 219 148 240 66 209 322 253 228 323 6 58 123 182 180 174 184 186 185 184 186 184 186 186
223 231 11 157 158 161 174 200 192 190 201 215 221 224 321 180 210 193 197 203 229 218 242 238 216 219 232 229 198 180 177 200 188 205 196 210 219 198 170 182 150 158 147 94 104 278 74 124 187 240 56 358 358 165 38 28 97 347 288 187 168 203 195 206 208 160 195 216 199 258 246 274 296 62 333 15 60 40 149 173 178 182 182 183 176 176 180 177
228 245 283 190 165 163 182 199 194 208 203 203 206 214 211 207 191 204 217 202 204 204 222 220 248 230 257 212 197 205 168 216 224 205 217 194 219 15 247 174 154 165 160 193 168 175 129 238 164 167 277 313 313 352 318 4 38 225 197 206 212 212 203 215 42 40 309 222 182 167 247 228 264 180 337 283 70 84 114 156 160 167 182 181 175 173 175 175
157 231 216 295 197 175 195 187 201 199 203 206 184 207 209 227 212 211 206 211 203 228 216 234 229 210 232 67 239 199 230 220 204 222 227 205 207 341 329 155 175 176 179 250 159 162 187 169 157 191 216 228 223 202 199 202 208 210 227 207 207 205 195 154 218 210 228 237 147 222 244 244 281 83 213 139 98 99 125 113 150 169 167 172 174 164 168 172
192 240 192 256 173 256 221 220 201 197 201 206 201 211 208 218 217 213 202 218 211 218 227 243 232 227 239 230 241 236 227 223 227 187 194 220 164 311 333 348 11 169 27 166 153 162 169 183 185 200 210 223 238 190 205 123 89 187 213 192 211 206 206 208 227 208 225 216 181 231 228 261 273 222 232 207 183 180 170 178 160 158 166 164 167 172 173 178
130 212 148 222 313 240 237 111 204 191 215 187 210 179 205 211 209 201 194 233 201 211 217 225 203 200 217 219 230 235 233 239 224 357 214 207 63 289 23 12 44 38 93 84 350 71 103 197 215 213 220 233 212 167 201 162 178 207 195 205 204 195 200 199 205 223 165 176 251 239 137 241 230 215 222 208 201 197 186 183 186 168 164 166 173 162 148 149
215 200 179 182 156 205 242 234 207 223 206 194 215 179 209 207 204 208 177 217 205 196 211 210 224 223 212 210 211 225 216 229 203 216 224 224 96 54 23 2 253 128 120 158 351 168 162 208 217 197 232 236 199 189 166 190 202 197 203 200 195 201 194 204 221 228 146 206 238 209 163 224 233 191 213 206 189 194 195 188 183 166 135 129 138 154 166 171
352 337 201 154 192 192 213 56 162 232 242 196 208 212 212 211 213 208 196 187 206 197 198 222 218 218 219 215 211 222 213 221 230 224 206 162 180 134 185 338 265 105 103 83 132 257 92 250 212 174 232 238 237 228 151 171 200 233 222 212 205 198 203 205 218 220 211 230 239 201 197 240 231 204 196 203 195 185 143 111 128 144 159 156 157 162 170 174
200 170 217 353 68 152 177 185 177 220 263 210 202 205 203 208 217 211 210 174 189 210 193 218 229 217 212 215 217 220 214 217 215 219 195 167 187 196 205 189 142 96 161 183 172 278 164 236 171 162 228 245 236 234 219 204 178 231 235 242 227 214 209 208 218 223 223 244 251 246 264 262 242 140 155 75 106 99 110 127 147 154 153 156 160 173 179 187
323 319 184 146 185 192 156 161 187 202 216 271 235 214 207 214 220 206 212 203 201 195 192 213 223 223 210 215 219 228 228 223 225 230 195 171 206 200 178 228 147 153 166 158 149 218 171 250 39 133 212 251 225 200 218 163 185 246 254 239 229 198 198 216 219 215 204 223 233 239 243 246 136 115 70 60 114 139 147 149 150 157 160 151 166 186 187 196
325 282 299 174 197 167 182 160 184 143 219 203 194 229 206 222 229 183 234 264 226 224 206 220 229 215 220 214 217 222 228 227 224 156 186 202 250 98 163 135 157 156 168 172 78 142 190 152 162 181 209 239 265 171 185 125 261 295 251 240 215 198 220 223 228 219 215 214 223 224 234 225 186 162 133 193 138 146 137 164 138 136 164 172 183 192 198 202